Flag for USA Past Weather in Avalon (Santa Catalina Island), California, USA — Yesterday and Last 2 Weeks

Now
50 °F

Clear.


Feels Like: 47 °F
Forecast: 54 / 61 °F
Wind: 8 mph from Southeast

Location: Catalina Airport

Current Time: Jan 16, 2017 at 5:02:04 am

Latest Report: Jan 16, 2017 at 3:51 am


Visibility: 10 mi

Pressure: 30.02 "Hg

Humidity: 86%

Dew Point: 46 °F

Location of Avalon (Santa Catalina Island)Location

Past Weather in Avalon (Santa Catalina Island) — Graph

°F

Avalon (Santa Catalina Island) Temperature Yesterday

Maximum temperature yesterday: 57 °F (at 1:51 am)
Minimum temperature yesterday: 49 °F (at 8:27 pm)
Average temperature yesterday: 52 °F

High & Low Weather Summary for the Past Weeks

 TemperatureHumidityPressure
High72 °F (Jan 8, 11:51 am)100% (Jan 2, 5:03 am)30.20 "Hg (Jan 2, 5:03 am)
Low45 °F (Jan 1, 3:51 am)14% (Jan 7, 5:51 pm)29.86 "Hg (Jan 1, 4:18 am)
Average52 °F86%30.06 "Hg
* Reported Jan 1 3:51 am — Jan 16 3:51 am, Avalon (Santa Catalina Island), Weather by CustomWeather, © 2017

Note: Actual official high and low records may vary slightly from our data, if they occured in-between our weather recording intervals... More about our weather records

Advertising

Avalon (Santa Catalina Island) Weather History for the Previous 24 Hours

Scroll right to see more
 ConditionsComfort  
Time TempWeatherWind HumidityBarometerVisibility
3:51 am
Mon, Jan 16
50 °FClear.8 mph86%30.02 "Hg10 mi
2:51 am49 °FPassing clouds.10 mph90%30.03 "Hg10 mi
1:51 am49 °FOvercast.7 mph93%30.05 "Hg10 mi
1:36 am49 °FLow clouds.8 mph90%30.05 "Hg10 mi
12:51 am49 °FLow clouds.6 mph93%30.04 "Hg10 mi
11:51 pm
Sun, Jan 15
49 °FLow clouds.8 mph93%30.05 "Hg10 mi
11:12 pm49 °FPassing clouds.7 mph93%30.05 "Hg10 mi
11:03 pm49 °FPassing clouds.3 mph93%30.06 "Hg10 mi
10:51 pm49 °FClear.7 mph93%30.04 "Hg10 mi
10:32 pm49 °FPassing clouds.7 mph93%30.05 "Hg10 mi
9:51 pm50 °FLow clouds.7 mph89%30.06 "Hg10 mi
8:51 pm50 °FLow clouds.6 mph89%30.06 "Hg10 mi
8:27 pm49 °FPassing clouds.7 mph93%30.05 "Hg10 mi
8:18 pm50 °FPassing clouds.6 mph93%30.05 "Hg10 mi
7:51 pm50 °FClear.3 mph93%30.05 "Hg10 mi
7:18 pm50 °FPassing clouds.5 mph93%30.05 "Hg10 mi
6:51 pm50 °FPassing clouds.9 mph93%30.04 "Hg10 mi
6:09 pm50 °FPassing clouds.6 mph93%30.04 "Hg10 mi
5:51 pm51 °FClear.5 mph89%30.03 "Hg10 mi
4:51 pm52 °FSunny.7 mph83%30.02 "Hg10 mi
3:51 pm53 °FSunny.8 mph83%30.01 "Hg10 mi
3:21 pm54 °FScattered clouds.6 mph80%30.02 "Hg10 mi
3:07 pm55 °FPartly sunny.6 mph77%30.02 "Hg10 mi
2:51 pm55 °FOvercast.6 mph80%30.00 "Hg10 mi
1:51 pm56 °FOvercast.7 mph81%29.99 "Hg10 mi
1:35 pm57 °FOvercast.8 mph78%30.02 "Hg10 mi
12:51 pm57 °FPartly sunny.3 mph81%30.00 "Hg10 mi
11:51 am57 °FSunny.5 mph83%30.01 "Hg10 mi
10:51 am56 °FPassing clouds.8 mph87%30.04 "Hg10 mi
9:51 am54 °FPassing clouds.10 mph93%30.05 "Hg10 mi
9:38 am54 °FScattered clouds.8 mph97%30.06 "Hg10 mi
8:51 am53 °FFog.7 mph96%30.03 "Hg3 mi
8:42 am53 °FFog.6 mph96%30.04 "Hg1 mi
8:13 am52 °FFog.5 mph97%30.03 "Hg2 mi
8:04 am52 °FFog.6 mph93%30.03 "Hg6 mi
7:51 am52 °FSunny.No wind93%30.01 "Hg10 mi
6:51 am52 °FClear.3 mph77%30.01 "Hg10 mi
5:51 am53 °FClear.No wind74%29.99 "Hg10 mi
Weather by CustomWeather, © 2017

See weather overviewHow to use our weather pages